#timestamp,LO_Frequency,Hit 
1500393615.5,286044474.0,N
1500393635.4,286044473.4,N
1500393655.2,286044474.6,N
1500393675.0,286044471.6,N
1500393675.9,286044471.6,N
1500393695.8,286044473.4,N
1500393715.6,286044476.1,N
1500393735.5,286044474.0,N
1500393755.3,286044473.8,N
1500393775.1,286044473.8,N
1500393795.9,286044473.7,N
1500393815.7,286044476.8,N
1500393835.5,286044477.7,N
1500393855.4,286044475.3,N
1500393875.2,286044476.0,N
1500393895.1,286044473.7,N
1500393896.0,286044473.7,N
1500393915.8,286044473.8,N
1500393935.6,286044475.3,N
1500393955.5,286044476.6,N
1500393975.3,286044477.6,N
1500393995.1,286044477.0,N
1500394015.9,286044475.3,N
1500394035.7,286044475.7,N
1500394055.6,286044476.7,N
1500394075.4,286044478.6,N
1500394095.2,286044479.1,N
1500394115.1,286044480.9,N
1500394116.0,286044480.9,N
1500394135.8,286044478.9,N
1500394155.6,286044477.0,N
1500394175.5,286044478.5,N
1500394195.3,286044480.6,N
1500394215.2,286044479.2,N
1500394235.9,286044476.9,N
1500394255.7,286044478.0,N
1500394275.6,286044478.1,N
1500394295.4,286044479.4,N
1500394315.2,286044479.4,N
1500394335.1,286044478.7,N
1500394336.0,286044478.7,N
1500394355.8,286044478.3,N
1500394375.7,286044479.6,N
1500394395.5,286044478.0,N
1500394415.3,286044478.4,N
1500394435.2,286044476.7,N
1500394455.0,286044477.6,N
1500394455.9,286044477.6,N
1500394475.7,286044477.5,N
1500394495.6,286044479.2,N
1500394515.4,286044480.6,N
1500394535.3,286044480.6,N
1500394555.1,286044480.4,N
1500394556.0,286044480.4,N
1500394575.8,286044480.8,N
1500394595.7,286044482.3,N
1500394615.5,286044480.4,N
1500394635.3,286044480.2,N
1500394655.2,286044480.8,N
1500394675.0,286044484.1,N
1500394675.9,286044484.1,N
1500394695.8,286044481.2,N
1500394715.6,286044483.3,N
1500394735.4,286044483.2,N
1500394755.3,286044481.4,N
1500394775.1,286044481.6,N
1500394795.9,286044483.2,N
1500394815.7,286044485.1,N
1500394835.5,286044485.4,N
1500394855.4,286044483.8,N
1500394875.2,286044484.2,N
1500394895.0,286044483.5,N
1500394895.9,286044483.5,N
1500394915.8,286044483.5,N
1500394935.6,286044487.5,N
1500394955.5,286044485.4,N
1500394975.3,286044484.9,N
1500394995.1,286044485.4,N
1500395015.9,286044483.0,N
1500395035.7,286044485.5,N
1500395055.5,286044487.1,N
1500395075.4,286044484.4,N
1500395095.2,286044484.7,N
1500395115.1,286044485.0,N
1500395116.0,286044485.0,N
1500395135.8,286044485.2,N
1500395155.6,286044486.8,N
1500395175.5,286044488.0,N
1500395195.3,286044488.2,N
1500395215.1,286044487.7,N
1500395235.9,286044489.2,N
1500395255.7,286044489.5,N
1500395275.6,286044488.6,N
1500395295.4,286044486.9,N
1500395315.2,286044486.6,N
1500395335.1,286044486.1,N
1500395336.0,286044486.1,N
1500395355.8,286044487.7,N
1500395375.7,286044486.0,N
1500395395.5,286044486.5,N
1500395415.3,286044486.3,N
1500395435.2,286044488.8,N
1500395455.0,286044489.1,N
1500395455.9,286044489.1,N
1500395475.7,286044488.4,N
1500395495.6,286044490.7,N
1500395515.4,286044486.2,N
1500395535.3,286044487.7,N
1500395555.1,286044488.7,N
1500395556.0,286044488.7,N
1500395575.8,286044489.1,N
1500395595.7,286044488.6,N
1500395615.5,286044486.1,N
1500395635.3,286044486.1,N
1500395655.2,286044487.9,N
1500395675.0,286044488.9,N
1500395675.9,286044488.9,N
1500395695.8,286044489.0,N
1500395715.6,286044486.8,N
1500395735.4,286044486.7,N
1500395755.3,286044487.2,N
1500395775.1,286044484.5,N
1500395795.9,286044486.5,N
1500395815.7,286044489.1,N
1500395835.5,286044486.0,N
1500395855.4,286044488.3,N
1500395875.2,286044488.3,N
1500395895.0,286044487.9,N
1500395895.9,286044487.9,N
1500395915.8,286044492.3,N
1500395935.6,286044489.8,N
1500395955.5,286044488.7,N
1500395975.3,286044487.8,N
1500395995.1,286044487.9,N
1500396015.9,286044489.1,N
1500396035.7,286044488.0,N
1500396055.5,286044488.1,N
1500396075.4,286044489.5,N
1500396095.2,286044492.2,N
1500396115.1,286044490.6,N
1500396116.0,286044490.6,N
1500396135.8,286044488.2,N
1500396155.6,286044486.5,N
1500396175.5,286044488.6,N
1500396195.3,286044488.5,N
1500396215.1,286044488.2,N
1500396235.9,286044490.7,N
1500396255.7,286044487.7,N
1500396275.6,286044488.6,N
1500396295.4,286044487.6,N
1500396315.2,286044489.9,N
1500396335.1,286044487.8,N
1500396336.0,286044487.8,N
1500396355.8,286044490.4,N
1500396375.6,286044489.4,N
1500396395.5,286044491.7,N
1500396415.3,286044493.5,N
1500396435.2,286044491.4,N
1500396455.9,286044492.2,N
1500396475.7,286044489.4,N
1500396495.6,286044489.3,N
1500396515.4,286044489.3,N
1500396535.2,286044489.2,N
1500396555.1,286044489.3,N
1500396556.0,286044489.3,N
1500396575.8,286044489.5,N
1500396595.7,286044489.4,N
1500396615.5,286044489.9,N
1500396635.3,286044490.6,N
1500396655.2,286044489.7,N
1500396675.9,286044490.9,N
1500396695.7,286044493.4,N
1500396715.6,286044491.4,N
1500396735.4,286044492.0,N
1500396755.3,286044495.5,N
1500396775.1,286044494.4,N
1500396776.0,286044494.4,N
1500396795.8,286044492.9,N
1500396815.7,286044493.3,N
1500396835.5,286044493.8,N
1500396855.3,286044493.3,N
1500396875.2,286044493.6,N
1500396895.0,286044491.0,N
1500396895.9,286044491.0,N
1500396915.8,286044491.7,N
1500396935.6,286044493.5,N
1500396955.4,286044491.6,N
1500396975.3,286044491.1,N
1500396995.1,286044492.9,N
1500397015.8,286044491.1,N
1500397035.7,286044490.8,N
1500397055.5,286044492.1,N
1500397075.4,286044490.9,N
1500397095.2,286044493.2,N
1500397115.0,286044494.7,N
1500397115.9,286044494.7,N
1500397135.8,286044492.5,N
1500397155.6,286044492.6,N
1500397175.4,286044495.1,N
1500397195.3,286044495.9,N
